Weather History for Huntington, WV

Change the Weather History Date:

Wednesday, February 15, 2012

  Actual Average Record
Temperature  
Mean Temperature 45 °F 37 °F  
Max Temperature 56 °F 46 °F 77 °F (1954)
Min Temperature 34 °F 28 °F 3 °F (1943)
Degree Days  
Heating Degree Days 20 28  
Month to date heating degree days 413 438  
Since 1 July heating degree days 2744 3162  
Cooling Degree Days 0 0  
Month to date cooling degree days 0 0  
Year to date cooling degree days 0 0  
Moisture  
Dew Point 32 °F    
Average Humidity 64    
Maximum Humidity 82    
Minimum Humidity 46    
Precipitation  
Precipitation T in 0.11 in 2.67 in (1989)
Month to date precipitation 0.99 1.60  
Year to date precipitation 3.15 4.57  
Snow  
Snow 0.00 in - - ()
Month to date snowfall 1.8  
Since 1 September snowfall 2.1  
Snow Depth 0.00 in    
Sea Level Pressure  
Sea Level Pressure 30.19 in    
Wind  
Wind Speed 4 mph (East)    
Max Wind Speed 12 mph    
Max Gust Speed 17 mph    
Visibility 10 miles    
Events Rain    
T = Trace of Precipitation, MM = Missing Value Source: NWS Daily Summary

Daily Weather History Graph

Daily Weather History Graph

Search for Another Location

Airport:

Trip Planner

Search our weather history database for the weather conditions in past years. The results will help you decide how hot, cold, wet, or windy it might be!

Date:

Astronomy

Feb. 15, 2012 Rise Set
Actual Time 7:21 AM EST 6:07 PM EST
Civil Twilight 6:54 AM EST 6:35 PM EST
Nautical Twilight 6:23 AM EST 7:06 PM EST
Astronomical Twilight 5:52 AM EST 7:36 PM EST
Moon 2:10 AM EST (2/15) 12:04 PM EST (2/15)
Length of Visible Light 11h 40m
Length of Day
10h 46m
Last Quarter, 39% of the Moon is Illuminated
Feb 15
Last Quarter
Feb 21
New
Feb 29
First Quarter
Mar 8
Full
Mar 14
Last Quarter

Hourly Weather History & Observations

Time (EST) Temp. Windchill Dew Point Humidity Pressure Visibility Wind Dir Wind Speed Gust Speed Precip Events Conditions
12:51 AM 37.0 °F 33.3 °F 30.0 °F 76% 30.17 in 10.0 mi West 4.6 mph - N/A   Overcast
1:51 AM 36.0 °F 32.1 °F 30.9 °F 82% 30.17 in 10.0 mi WSW 4.6 mph - N/A   Overcast
2:51 AM 37.0 °F 32.4 °F 30.0 °F 76% 30.19 in 10.0 mi WSW 5.8 mph - N/A   Overcast
3:51 AM 36.0 °F - 30.9 °F 82% 30.20 in 10.0 mi Calm Calm - N/A   Overcast
4:51 AM 36.0 °F - 30.9 °F 82% 30.22 in 10.0 mi Calm Calm - N/A   Overcast
5:51 AM 36.0 °F 33.3 °F 30.9 °F 82% 30.22 in 10.0 mi SSW 3.5 mph - N/A   Overcast
6:51 AM 36.0 °F - 30.9 °F 82% 30.24 in 10.0 mi Calm Calm - N/A   Overcast
7:25 AM 33.8 °F - 30.2 °F 87% 30.23 in 10.0 mi Calm Calm - N/A   Scattered Clouds
7:51 AM 35.1 °F - 30.9 °F 85% 30.27 in 8.0 mi Calm Calm - N/A   Clear
8:51 AM 37.0 °F 34.5 °F 32.0 °F 82% 30.29 in 10.0 mi East 3.5 mph - N/A   Clear
9:51 AM 41.0 °F 39.0 °F 32.0 °F 70% 30.29 in 10.0 mi Variable 3.5 mph - N/A   Clear
10:51 AM 43.0 °F 39.5 °F 33.1 °F 68% 30.28 in 10.0 mi Variable 5.8 mph - N/A   Clear
11:51 AM 46.0 °F 43.1 °F 34.0 °F 63% 30.27 in 10.0 mi ESE 5.8 mph - N/A   Clear
12:51 PM 48.9 °F - 34.0 °F 56% 30.24 in 10.0 mi Variable 4.6 mph - N/A   Clear
1:51 PM 51.1 °F - 33.1 °F 50% 30.21 in 10.0 mi Variable 4.6 mph - N/A   Clear
2:51 PM 53.1 °F - 33.1 °F 47% 30.18 in 10.0 mi East 4.6 mph - N/A   Partly Cloudy
3:51 PM 54.0 °F - 33.1 °F 45% 30.17 in 10.0 mi ESE 11.5 mph - N/A   Partly Cloudy
4:51 PM 53.1 °F - 33.1 °F 47% 30.15 in 10.0 mi East 6.9 mph - N/A   Mostly Cloudy
5:51 PM 52.0 °F - 33.1 °F 49% 30.16 in 10.0 mi ENE 4.6 mph - N/A   Overcast
6:51 PM 51.8 °F - 33.8 °F 50% 30.17 in 10.0 mi Calm Calm - N/A   Overcast
7:51 PM 50.0 °F - 34.0 °F 54% 30.16 in 10.0 mi ENE 5.8 mph - 0.00 in Rain Light Rain
8:51 PM 50.0 °F - 34.0 °F 54% 30.14 in 10.0 mi NE 3.5 mph - 0.00 in   Overcast
9:51 PM 48.0 °F - 35.1 °F 61% 30.10 in 10.0 mi NE 10.4 mph - N/A   Overcast
10:51 PM 50.0 °F - 34.0 °F 54% 30.09 in 10.0 mi East 8.1 mph - N/A   Scattered Clouds
11:51 PM 48.9 °F - 34.0 °F 56% 30.04 in 10.0 mi East 8.1 mph - N/A   Clear